Pittsfield, IL

8:01 PM CDT on June 26, 2017 (GMT -0500)
Pittsfield Penstone Municipal

Weather History for KPPQ - January, 2011

Change the Weather History Date:

Saturday, January 8, 2011

  Actual Average (KUIN) Record (KUIN)
Temperature  
Mean Temperature 12 °F -  
Max Temperature 19 °F 28 °F 64 °F (1965)
Min Temperature 6 °F 13 °F -19 °F (1912)
Degree Days  
Heating Degree Days 52    
Moisture  
Dew Point 3 °F    
Average Humidity 66    
Maximum Humidity 79    
Minimum Humidity 53    
Precipitation  
Precipitation 0.00 in - - ()
Sea Level Pressure  
Sea Level Pressure 29.93 in    
Wind  
Wind Speed 14 mph (WNW)    
Max Wind Speed 24 mph    
Max Gust Speed 32 mph    
Visibility 10 miles    
Events      
Averages and records for this station are not official NWS values.
T = Trace of Precipitation, MM = Missing Value Source: NWS Daily Summary

Daily Weather History Graph

Daily Weather History Graph

Search for Another Location

Airport or City:

Trip Planner

Search our weather history database for the weather conditions in past years. The results will help you decide how hot, cold, wet, or windy it might be!

Date:

Astronomy

Jan. 08, 2011 Rise Set
Actual Time 7:23 AM CST 4:55 PM CST
Civil Twilight 6:54 AM CST 5:25 PM CST
Nautical Twilight 6:20 AM CST 5:59 PM CST
Astronomical Twilight 5:47 AM CST 6:31 PM CST
Moon 9:33 AM CST (1/8) 9:28 PM CST (1/8)
Length of Visible Light 10h 31m
Length of Day
9h 31m
Waxing Crescent, 18% of the Moon is Illuminated
Jan 8
Waxing Crescent
Jan 12
First Quarter
Jan 19
Full
Jan 26
Last Quarter
Feb 2
New

Hourly Weather History & Observations

Time (CST) Temp. Windchill Dew Point Humidity Pressure Visibility Wind Dir Wind Speed Gust Speed Precip Events Conditions
12:07 AM 17.6 °F 2.2 °F 8.6 °F 68% 29.70 in 10.0 mi NW 17.3 mph 21.9 mph N/A   Overcast
12:27 AM 17.6 °F 1.7 °F 8.6 °F 68% 29.71 in 7.0 mi NW 18.4 mph 28.8 mph N/A   Overcast
12:47 AM 15.8 °F -1.9 °F 8.6 °F 73% 29.71 in 7.0 mi NW 21.9 mph 25.3 mph N/A   Overcast
1:07 AM 15.8 °F -2.7 °F 8.6 °F 73% 29.72 in 5.0 mi NW 24.2 mph 31.1 mph N/A   Overcast
1:27 AM 15.8 °F -1.9 °F 6.8 °F 68% 29.73 in 5.0 mi WNW 21.9 mph 32.2 mph N/A   Haze
1:47 AM 14.0 °F -4.3 °F 3.2 °F 62% 29.75 in 10.0 mi NW 21.9 mph 27.6 mph N/A   Scattered Clouds
2:08 AM 12.2 °F -3.7 °F 1.4 °F 62% 29.76 in 7.0 mi NW 15.0 mph 29.9 mph N/A   Clear
2:27 AM 12.2 °F -2.5 °F 1.4 °F 62% 29.77 in 10.0 mi WNW 12.7 mph 18.4 mph N/A   Clear
2:47 AM 10.4 °F -5.4 °F 1.4 °F 67% 29.78 in 10.0 mi WNW 13.8 mph 18.4 mph N/A   Clear
3:07 AM 10.4 °F -5.4 °F 1.4 °F 67% 29.78 in 10.0 mi WNW 13.8 mph 19.6 mph N/A   Clear
3:27 AM 10.4 °F -3.3 °F 1.4 °F 67% 29.79 in 10.0 mi WNW 10.4 mph 16.1 mph N/A   Clear
3:47 AM 10.4 °F -5.4 °F 1.4 °F 67% 29.80 in 10.0 mi WNW 13.8 mph 17.3 mph N/A   Clear
4:08 AM 10.4 °F -5.4 °F 1.4 °F 67% 29.80 in 10.0 mi NW 13.8 mph 18.4 mph N/A   Clear
4:27 AM 8.6 °F -7.0 °F 1.4 °F 73% 29.82 in 10.0 mi WNW 12.7 mph 18.4 mph N/A   Clear
4:47 AM 8.6 °F -5.5 °F 1.4 °F 73% 29.83 in 10.0 mi WNW 10.4 mph 16.1 mph N/A   Clear
5:07 AM 8.6 °F -4.7 °F 1.4 °F 73% 29.84 in 10.0 mi WNW 9.2 mph - N/A   Clear
5:27 AM 8.6 °F -5.5 °F 1.4 °F 73% 29.85 in 10.0 mi WNW 10.4 mph 16.1 mph N/A   Clear
5:47 AM 8.6 °F -5.5 °F 1.4 °F 73% 29.86 in 10.0 mi WNW 10.4 mph - N/A   Clear
6:07 AM 8.6 °F -5.5 °F 1.4 °F 73% 29.86 in 10.0 mi WNW 10.4 mph 16.1 mph N/A   Clear
6:27 AM 8.6 °F -7.0 °F 1.4 °F 73% 29.87 in 10.0 mi NW 12.7 mph 17.3 mph N/A   Clear
6:48 AM 8.6 °F -3.7 °F 1.4 °F 73% 29.88 in 10.0 mi WNW 8.1 mph - N/A   Clear
7:08 AM 6.8 °F -6.9 °F 1.4 °F 79% 29.89 in 10.0 mi WNW 9.2 mph - N/A   Clear
7:27 AM 6.8 °F -8.6 °F 1.4 °F 79% 29.90 in 10.0 mi NW 11.5 mph - N/A   Clear
7:47 AM 6.8 °F -6.9 °F 1.4 °F 79% 29.91 in 10.0 mi WNW 9.2 mph - N/A   Clear
8:07 AM 6.8 °F -7.8 °F 1.4 °F 79% 29.92 in 10.0 mi WNW 10.4 mph - N/A   Clear
8:27 AM 8.6 °F -5.5 °F 1.4 °F 73% 29.94 in 10.0 mi WNW 10.4 mph - N/A   Clear
8:47 AM 8.6 °F -6.3 °F 1.4 °F 73% 29.95 in 10.0 mi WNW 11.5 mph - N/A   Scattered Clouds
9:07 AM 8.6 °F -6.3 °F 1.4 °F 73% 29.96 in 10.0 mi WNW 11.5 mph - N/A   Clear
9:27 AM 10.4 °F -5.4 °F 1.4 °F 67% 29.97 in 10.0 mi NW 13.8 mph 18.4 mph N/A   Clear
9:47 AM 10.4 °F -5.4 °F 1.4 °F 67% 29.98 in 10.0 mi WNW 13.8 mph - N/A   Clear
10:07 AM 10.4 °F -4.1 °F 1.4 °F 67% 30.00 in 10.0 mi WNW 11.5 mph 18.4 mph N/A   Clear
10:27 AM 10.4 °F -4.1 °F 1.4 °F 67% 30.00 in 10.0 mi WNW 11.5 mph - N/A   Clear
10:47 AM 12.2 °F -1.0 °F 3.2 °F 67% 30.00 in 10.0 mi WNW 10.4 mph - N/A   Clear
11:07 AM 12.2 °F -1.0 °F 3.2 °F 67% 30.00 in 10.0 mi NW 10.4 mph - N/A   Clear
11:27 AM 12.2 °F -1.0 °F 3.2 °F 67% 30.01 in 10.0 mi WNW 10.4 mph - N/A   Clear
11:47 AM 14.0 °F 1.2 °F 3.2 °F 62% 30.00 in 10.0 mi NW 10.4 mph - N/A   Clear
12:07 PM 14.0 °F 1.2 °F 3.2 °F 62% 30.00 in 10.0 mi WNW 10.4 mph - N/A   Clear
12:27 PM 15.8 °F 3.4 °F 3.2 °F 58% 30.00 in 10.0 mi WNW 10.4 mph - N/A   Clear
12:48 PM 15.8 °F 5.1 °F 3.2 °F 58% 30.01 in 10.0 mi WNW 8.1 mph - N/A   Clear
1:07 PM 15.8 °F 2.7 °F 3.2 °F 58% 30.01 in 10.0 mi NW 11.5 mph 18.4 mph N/A   Clear
1:27 PM 15.8 °F 3.4 °F 5.0 °F 62% 30.02 in 10.0 mi NW 10.4 mph - N/A   Clear
1:47 PM 17.6 °F 6.4 °F 3.2 °F 53% 30.03 in 10.0 mi WNW 9.2 mph - N/A   Clear
2:07 PM 17.6 °F 6.4 °F 3.2 °F 53% 30.03 in 10.0 mi WNW 9.2 mph - N/A   Clear
2:27 PM 17.6 °F 5.7 °F 5.0 °F 58% 30.05 in 10.0 mi WNW 10.4 mph 17.3 mph N/A   Clear
2:47 PM 17.6 °F 6.4 °F 5.0 °F 58% 30.05 in 10.0 mi WNW 9.2 mph - N/A   Clear
3:07 PM 17.6 °F 6.4 °F 3.2 °F 53% 30.06 in 10.0 mi WNW 9.2 mph - N/A   Clear
3:27 PM 19.4 °F 11.5 °F 5.0 °F 54% 30.07 in 10.0 mi WNW 5.8 mph - N/A   Clear
3:47 PM 19.4 °F 8.6 °F 5.0 °F 54% 30.07 in 10.0 mi West 9.2 mph - N/A   Clear
4:08 PM 19.4 °F 10.4 °F 5.0 °F 54% 30.08 in 10.0 mi WNW 6.9 mph - N/A   Clear
4:28 PM 17.6 °F 8.2 °F 5.0 °F 58% 30.08 in 10.0 mi NW 6.9 mph - N/A   Clear
4:47 PM 15.8 °F 6.1 °F 5.0 °F 62% 30.08 in 10.0 mi NNW 6.9 mph - N/A   Clear
5:07 PM 15.8 °F 6.1 °F 5.0 °F 62% 30.08 in 10.0 mi NW 6.9 mph - N/A   Clear
5:27 PM 14.0 °F 8.2 °F 3.2 °F 62% 30.09 in 10.0 mi NW 3.5 mph - N/A   Clear
5:47 PM 14.0 °F - 5.0 °F 67% 30.09 in 10.0 mi Calm Calm - N/A   Clear
6:07 PM 12.2 °F 2.9 °F 3.2 °F 67% 30.10 in 10.0 mi NW 5.8 mph - N/A   Clear
6:27 PM 12.2 °F 6.1 °F 3.2 °F 67% 30.10 in 10.0 mi WNW 3.5 mph - N/A   Clear
6:47 PM 10.4 °F - 3.2 °F 73% 30.11 in 10.0 mi Calm Calm - N/A   Clear
7:07 PM 12.2 °F - 3.2 °F 67% 30.11 in 10.0 mi Calm Calm - N/A   Clear
7:27 PM 12.2 °F 6.1 °F 3.2 °F 67% 30.11 in 10.0 mi WNW 3.5 mph - N/A   Clear
7:47 PM 10.4 °F - 3.2 °F 73% 30.12 in 10.0 mi Calm Calm - N/A   Clear
8:07 PM 10.4 °F 4.0 °F 3.2 °F 73% 30.12 in 10.0 mi West 3.5 mph - N/A   Clear
8:29 PM 8.6 °F 2.0 °F 3.2 °F 79% 30.12 in 10.0 mi WNW 3.5 mph - N/A   Clear
8:47 PM 8.6 °F 2.0 °F 3.2 °F 79% 30.13 in 10.0 mi WNW 3.5 mph - N/A   Clear
9:07 PM 8.6 °F - 3.2 °F 79% 30.13 in 10.0 mi Calm Calm - N/A   Clear
9:27 PM 8.6 °F 0.1 °F 3.2 °F 79% 30.14 in 10.0 mi NW 4.6 mph - N/A   Clear
9:47 PM 6.8 °F -0.1 °F 1.4 °F 79% 30.14 in 10.0 mi WNW 3.5 mph - N/A   Clear
10:07 PM 6.8 °F -3.5 °F 3.2 °F 85% 30.15 in 10.0 mi West 5.8 mph - N/A   Clear
10:27 PM 6.8 °F -3.5 °F 1.4 °F 79% 30.15 in 10.0 mi West 5.8 mph - N/A   Clear
10:47 PM 6.8 °F -2.0 °F 1.4 °F 79% 30.16 in 10.0 mi WNW 4.6 mph - N/A   Clear
11:07 PM 8.6 °F -1.3 °F 3.2 °F 79% 30.16 in 10.0 mi NW 5.8 mph - N/A   Clear
11:27 PM 8.6 °F -1.3 °F 3.2 °F 79% 30.16 in 10.0 mi WNW 5.8 mph - N/A   Clear
11:47 PM 6.8 °F -4.8 °F 1.4 °F 79% 30.18 in 10.0 mi NW 6.9 mph - N/A   Clear